Regional Weather Roundup
Issued by NWS Sioux Falls, SD

Home | Current Version | Previous Version | Text Only | Print | Product List | Glossary On
Versions: 1 2 3 4 5 6 7 8 9 10 11 12 13 14 15 16 17 18 19 20 21 22 23 24 25 26 27 28 29 30 31 32 33 34 35 36 37 38 39 40 41 42 43 44 45 46 47 48 49 50
000
ASUS43 KFSD 240710
RWRFSD

WEATHER ROUNDUP FOR SE SOUTH DAKOTA/SW MINNESOTA/NW IOWA
NATIONAL WEATHER SERVICE SIOUX FALLS SD
200 AM CDT THU JUL 24 2014

NOTE: "FAIR" INDICATES FEW OR NO CLOUDS BELOW 12,000 FEET WITH NO
SIGNIFICANT WEATHER AND OR OBSTRUCTIONS TO VISIBILITY.


SDZ038>040-050-052>070-240800-
SOUTHEAST SOUTH DAKOTA

CITY           SKY/WX    TMP DP  RH WIND       PRES   REMARKS
CHAMBERLAIN    MOCLDY    65  59  79 SE10      30.10F
HURON          CLEAR     65  55  70 SE8       30.13S
MADISON        FAIR      57  55  94 SE7       30.18S
MITCHELL       CLEAR     64  59  83 SE7       30.14F
SIOUX FALLS    CLEAR     64  55  72 E7        30.17S
WINNER         CLOUDY    71  59  65 SE14      30.09F
YANKTON        CLEAR     63  59  88 NE5       30.15F
$$

MNZ071-072-080-081-089-090-097-098-240800-
SOUTHWEST MINNESOTA

CITY           SKY/WX    TMP DP  RH WIND       PRES   REMARKS
FAIRMONT       CLEAR     61  52  72 CALM      30.18S
JACKSON        CLEAR     55  52  88 CALM      30.20S
LUVERNE        CLEAR     61  54  77 CALM      30.19F
MARSHALL       CLEAR     61  54  77 CALM      30.17F
MONTEVIDEO     CLEAR     63  57  82 S3        30.18S
PIPESTONE      CLEAR     63  54  72 SE3       30.19S
REDWOOD FALLS  CLEAR     61  54  77 CALM      30.17S
TRACY          CLEAR     64  55  70 S6        30.19F
WINDOM         CLEAR     57  52  82 CALM      30.19F
WORTHINGTON    CLEAR     57  52  82 CALM      30.20F
$$

IAZ001>003-012>014-020>022-031-032-NEZ013-014-SDZ071-240800-
NORTHWEST IOWA

CITY           SKY/WX    TMP DP  RH WIND       PRES   REMARKS
CHEROKEE       CLEAR     63  61  91 CALM      30.18S
DENISON        PTCLDY    64  61  88 CALM      30.16S
ESTHERVILLE    CLEAR     57  54  89 N3        30.18F
LE MARS        PTCLDY    68  61  77 CALM      30.17S
ORANGE CITY    CLEAR     64  57  77 E3        30.18F
SHELDON        CLOUDY    59  55  88 SE5       30.18S
SIOUX CITY     CLEAR     64  61  90 E6        30.16S
SPENCER        MOCLDY    61  56  83 CALM      30.18F
STORM LAKE     CLEAR     63  61  94 SE3       30.19F
$$

ABBREVIATIONS USED IN REMARKS
   TC - TEMPERATURE IN CELSIUS
  WCI - WIND CHILL INDEX
   HX - HEAT INDEX
  VSB - VISIBILITY



USA.gov is the U.S. government's official web portal to all federal, state and local government web resources and services.